| time (UTC) | temp F | wind direction | speed MPH | gust MPH | rain 1hr in | rain 24hr in | rain mn in | humidity % | barometer mb |
| 20260507003021 | 53 | 28 | 0.0 | 5.0 | 0.00 | 0.57 | 0.34 | 94 | 1016.4 |
| 20260507003007 | 53 | 21 | 0.0 | 2.0 | 0.00 | 0.56 | 0.32 | 94 | 1014.9 |
| 20260507001506 | 53 | 21 | 0.0 | 2.0 | 0.00 | 0.56 | 0.32 | 93 | 1014.6 |
| 20260507000037 | 53 | 27 | 1.0 | 9.0 | 0.00 | 0.57 | 0.34 | 93 | 1015.1 |
| 20260507000011 | 53 | 21 | 0.0 | 4.0 | 0.00 | 0.57 | 0.32 | 93 | 1013.8 |
| 20260506234505 | 53 | 21 | 1.0 | 5.0 | 0.00 | 0.57 | 0.32 | 93 | 1013.7 |
| 20260506233016 | 53 | 35 | 3.0 | 9.0 | 0.02 | 0.58 | 0.34 | 93 | 1014.3 |
| 20260506233005 | 53 | 20 | 3.0 | 7.0 | 0.02 | 0.57 | 0.32 | 93 | 1012.9 |
| 20260506231506 | 53 | 38 | 4.0 | 8.0 | 0.03 | 0.57 | 0.32 | 93 | 1012.8 |
| 20260506230016 | 54 | 356 | 1.0 | 5.0 | 0.04 | 0.58 | 0.34 | 94 | 1015.0 |
| 20260506230005 | 54 | 37 | 2.0 | 5.0 | 0.04 | 0.59 | 0.32 | 94 | 1013.3 |
| 20260506224504 | 54 | 338 | 2.0 | 3.0 | 0.04 | 0.59 | 0.32 | 93 | 1013.5 |
| 20260506223016 | 54 | 330 | 0.0 | 6.0 | 0.02 | 0.56 | 0.32 | 93 | 1016.1 |
| 20260506223003 | 54 | 337 | 0.0 | 2.0 | 0.02 | 0.56 | 0.30 | 93 | 1014.5 |
| 20260506221507 | 54 | 337 | 0.0 | 2.0 | 0.01 | 0.56 | 0.28 | 92 | 1014.1 |
| 20260506220016 | 54 | 323 | 1.0 | 6.0 | 0.01 | 0.55 | 0.30 | 92 | 1015.6 |
| 20260506220003 | 54 | 335 | 1.0 | 3.0 | 0.01 | 0.62 | 0.28 | 92 | 1014.0 |
| 20260506214501 | 54 | 331 | 1.0 | 6.0 | 0.02 | 0.62 | 0.28 | 92 | 1014.0 |
| 20260506213016 | 54 | 310 | 1.0 | 5.0 | 0.02 | 0.56 | 0.30 | 92 | 1015.6 |
| 20260506213001 | 54 | 316 | 0.0 | 3.0 | 0.02 | 0.62 | 0.28 | 92 | 1014.0 |
| 20260506211500 | 54 | 316 | 1.0 | 4.0 | 0.02 | 0.62 | 0.28 | 92 | 1013.3 |
| 20260506210101 | 55 | 314 | 1.0 | 4.0 | 0.02 | 0.61 | 0.27 | 91 | 1014.1 |
| 20260506210020 | 55 | 308 | 1.0 | 4.0 | 0.02 | 0.61 | 0.28 | 91 | 1015.6 |
| 20260506204600 | 55 | 314 | 1.0 | 4.0 | 0.02 | 0.60 | 0.26 | 91 | 1014.2 |
| 20260506203059 | 55 | 313 | 1.0 | 4.0 | 0.02 | 0.60 | 0.26 | 91 | 1014.0 |
| 20260506203016 | 55 | 307 | 1.0 | 4.0 | 0.02 | 0.60 | 0.28 | 91 | 1015.5 |
| 20260506201558 | 55 | 313 | 1.0 | 3.0 | 0.02 | 0.60 | 0.26 | 90 | 1014.0 |
| 20260506200105 | 55 | 313 | 0.0 | 2.0 | 0.01 | 0.60 | 0.25 | 88 | 1014.6 |
| 20260506200016 | 55 | 350 | 1.0 | 7.0 | 0.01 | 0.59 | 0.27 | 88 | 1016.3 |
| 20260506194602 | 55 | 313 | 1.0 | 4.0 | 0.00 | 0.59 | 0.24 | 87 | 1014.4 |
| 20260506193054 | 55 | 44 | 1.0 | 4.0 | 0.00 | 0.59 | 0.24 | 87 | 1014.2 |
| 20260506193016 | 55 | 49 | 2.0 | 7.0 | 0.00 | 0.58 | 0.26 | 87 | 1015.9 |
| 20260506191604 | 55 | 46 | 2.0 | 6.0 | 0.00 | 0.59 | 0.24 | 87 | 1014.5 |
| 20260506190049 | 55 | 49 | 3.0 | 5.0 | 0.00 | 0.59 | 0.24 | 88 | 1014.0 |
| 20260506190016 | 54 | 8 | 3.0 | 10.0 | 0.00 | 0.59 | 0.26 | 88 | 1015.7 |
| 20260506184550 | 54 | 359 | 3.0 | 6.0 | 0.00 | 0.59 | 0.24 | 87 | 1014.6 |
| 20260506183052 | 54 | 1 | 3.0 | 7.0 | 0.00 | 0.59 | 0.24 | 88 | 1014.3 |
| 20260506183016 | 54 | 22 | 4.0 | 10.0 | 0.00 | 0.59 | 0.26 | 88 | 1015.9 |
| 20260506181556 | 54 | 9 | 4.0 | 9.0 | 0.00 | 0.59 | 0.24 | 87 | 1013.7 |
| 20260506180104 | 54 | 20 | 5.0 | 9.0 | 0.00 | 0.59 | 0.24 | 87 | 1014.5 |
| 20260506180036 | 54 | 17 | 3.0 | 10.0 | 0.00 | 0.59 | 0.26 | 87 | 1016.2 |
| 20260506174541 | 54 | 339 | 3.0 | 8.0 | 0.00 | 0.59 | 0.24 | 90 | 1014.7 |
| 20260506173042 | 54 | 37 | 3.0 | 7.0 | 0.00 | 0.59 | 0.24 | 89 | 1014.1 |
| 20260506173020 | 54 | 5 | 3.0 | 10.0 | 0.00 | 0.59 | 0.26 | 89 | 1015.8 |
| 20260506171539 | 53 | 37 | 2.0 | 7.0 | 0.00 | 0.59 | 0.24 | 91 | 1014.2 |
| 20260506170036 | 52 | 13 | 4.0 | 12.0 | 0.00 | 0.59 | 0.26 | 92 | 1015.6 |
| 20260506164535 | 51 | 360 | 5.0 | 9.0 | 0.00 | 0.59 | 0.24 | 93 | 1013.8 |
| 20260506163037 | 51 | 357 | 4.0 | 9.0 | 0.00 | 0.59 | 0.24 | 93 | 1014.0 |
| 20260506163016 | 51 | 21 | 5.0 | 12.0 | 0.00 | 0.59 | 0.26 | 93 | 1015.7 |
| 20260506161535 | 51 | 43 | 5.0 | 10.0 | 0.00 | 0.59 | 0.24 | 92 | 1014.2 |
| 20260506160031 | 51 | 27 | 5.0 | 8.0 | 0.00 | 0.62 | 0.24 | 92 | 1014.5 |
| 20260506160016 | 51 | 29 | 4.0 | 10.0 | 0.00 | 0.59 | 0.26 | 93 | 1016.2 |
| 20260506154529 | 51 | 359 | 3.0 | 8.0 | 0.00 | 0.62 | 0.24 | 93 | 1014.4 |
| 20260506153026 | 51 | 1 | 3.0 | 7.0 | 0.00 | 0.62 | 0.24 | 93 | 1014.5 |
| 20260506153015 | 51 | 26 | 3.0 | 10.0 | 0.00 | 0.59 | 0.26 | 93 | 1016.1 |
| 20260506151525 | 51 | 15 | 3.0 | 7.0 | 0.00 | 0.62 | 0.24 | 93 | 1014.3 |
| 20260506150055 | 50 | 43 | 4.0 | 12.0 | 0.00 | 0.63 | 0.26 | 94 | 1015.3 |
| 20260506150022 | 50 | 37 | 5.0 | 9.0 | 0.00 | 0.78 | 0.24 | 94 | 1013.7 |
| 20260506144522 | 50 | 16 | 4.0 | 8.0 | 0.00 | 0.78 | 0.24 | 94 | 1013.3 |
| 20260506143020 | 49 | 52 | 5.0 | 10.0 | 0.00 | 0.78 | 0.24 | 95 | 1013.0 |
| 20260506143015 | 49 | 43 | 5.0 | 12.0 | 0.00 | 0.73 | 0.26 | 95 | 1014.7 |
| 20260506141514 | 49 | 34 | 4.0 | 10.0 | 0.00 | 0.78 | 0.24 | 95 | 1013.0 |
| 20260506140020 | 48 | 38 | 5.0 | 11.0 | 0.00 | 0.78 | 0.26 | 95 | 1014.8 |
| 20260506140013 | 48 | 39 | 4.0 | 8.0 | 0.00 | 0.78 | 0.24 | 95 | 1013.1 |
| 20260506134510 | 48 | 41 | 6.0 | 9.0 | 0.00 | 0.78 | 0.24 | 95 | 1012.7 |
| 20260506133015 | 48 | 24 | 5.0 | 14.0 | 0.00 | 0.78 | 0.26 | 95 | 1014.2 |
| 20260506133007 | 48 | 11 | 6.0 | 10.0 | 0.00 | 0.78 | 0.24 | 95 | 1012.6 |
| 20260506131507 | 48 | 30 | 6.0 | 10.0 | 0.00 | 0.78 | 0.24 | 96 | 1012.2 |
| 20260506130015 | 49 | 11 | 4.0 | 14.0 | 0.00 | 0.78 | 0.26 | 96 | 1013.5 |
| 20260506130002 | 49 | 21 | 5.0 | 13.0 | 0.00 | 0.78 | 0.24 | 96 | 1011.9 |
| 20260506124558 | 49 | 330 | 5.0 | 9.0 | 0.00 | 0.78 | 0.24 | 96 | 1011.7 |
| 20260506123057 | 49 | 1 | 3.0 | 9.0 | 0.00 | 0.78 | 0.24 | 96 | 1011.4 |
| 20260506123015 | 49 | 16 | 4.0 | 12.0 | 0.00 | 0.78 | 0.26 | 96 | 1013.0 |
| 20260506121555 | 49 | 23 | 4.0 | 8.0 | 0.00 | 0.78 | 0.24 | 97 | 1011.1 |
| 20260506120055 | 50 | 360 | 3.0 | 8.0 | 0.00 | 0.78 | 0.24 | 96 | 1011.3 |
| 20260506120015 | 50 | 348 | 3.0 | 9.0 | 0.00 | 0.78 | 0.26 | 96 | 1012.9 |
| 20260506114551 | 50 | 357 | 3.0 | 7.0 | 0.00 | 0.78 | 0.24 | 97 | 1011.4 |
| 20260506113049 | 50 | 355 | 3.0 | 8.0 | 0.00 | 0.78 | 0.24 | 97 | 1011.2 |
| 20260506113035 | 50 | 19 | 2.0 | 9.0 | 0.00 | 0.78 | 0.26 | 97 | 1012.8 |
| 20260506111546 | 50 | 27 | 2.0 | 6.0 | 0.00 | 0.78 | 0.24 | 97 | 1010.6 |
| 20260506110047 | 50 | 38 | 2.0 | 5.0 | 0.00 | 0.78 | 0.24 | 97 | 1010.8 |
| 20260506110023 | 50 | 47 | 2.0 | 9.0 | 0.00 | 0.78 | 0.26 | 97 | 1012.3 |
| 20260506104548 | 50 | 39 | 2.0 | 5.0 | 0.02 | 0.78 | 0.24 | 96 | 1010.7 |
| 20260506103044 | 50 | 64 | 1.0 | 5.0 | 0.02 | 0.78 | 0.24 | 96 | 1010.5 |
| 20260506103021 | 50 | 28 | 3.0 | 13.0 | 0.02 | 0.78 | 0.26 | 96 | 1012.1 |
| 20260506101543 | 50 | 27 | 3.0 | 8.0 | 0.02 | 0.78 | 0.24 | 96 | 1010.5 |
| 20260506100043 | 50 | 35 | 2.0 | 9.0 | 0.02 | 0.78 | 0.24 | 96 | 1010.1 |
| 20260506100017 | 50 | 14 | 4.0 | 13.0 | 0.02 | 0.78 | 0.26 | 96 | 1011.8 |
| 20260506094540 | 50 | 349 | 4.0 | 9.0 | 0.00 | 0.76 | 0.22 | 96 | 1010.1 |
| 20260506093041 | 50 | 340 | 5.0 | 9.0 | 0.00 | 0.76 | 0.22 | 96 | 1009.6 |
| 20260506093015 | 50 | 36 | 5.0 | 14.0 | 0.00 | 0.76 | 0.24 | 96 | 1011.2 |
| 20260506091536 | 50 | 32 | 4.0 | 10.0 | 0.00 | 0.76 | 0.22 | 96 | 1008.9 |
| 20260506090057 | 50 | 39 | 7.0 | 15.0 | 0.00 | 0.76 | 0.24 | 96 | 1010.7 |
| 20260506090039 | 50 | 34 | 6.0 | 11.0 | 0.00 | 0.76 | 0.22 | 96 | 1009.0 |
| 20260506084537 | 50 | 57 | 8.0 | 13.0 | 0.01 | 0.76 | 0.22 | 96 | 1009.1 |
| 20260506083032 | 50 | 15 | 7.0 | 13.0 | 0.02 | 0.76 | 0.22 | 96 | 1009.3 |
| 20260506083017 | 50 | 36 | 8.0 | 15.0 | 0.02 | 0.76 | 0.24 | 96 | 1011.0 |
| 20260506081530 | 50 | 44 | 7.0 | 14.0 | 0.06 | 0.76 | 0.22 | 97 | 1009.1 |
| 20260506073024 | 51 | 43 | 7.0 | 10.0 | 0.11 | 0.74 | 0.20 | 97 | 1008.6 |
| 20260506073016 | 51 | 351 | 5.0 | 13.0 | 0.11 | 0.74 | 0.22 | 97 | 1010.2 |
| 20260506071522 | 51 | 330 | 5.0 | 10.0 | 0.07 | 0.70 | 0.16 | 97 | 1008.9 |
| 20260506061521 | 52 | 360 | 6.0 | 12.0 | 0.06 | 0.63 | 0.09 | 96 | 1007.6 |
| 20260506044553 | 57 | 349 | 6.0 | 14.0 | 0.15 | 0.46 | 0.46 | 93 | 1007.1 |
| 20260506043050 | 63 | 323 | 10.0 | 18.0 | 0.08 | 0.39 | 0.39 | 95 | 1006.5 |
| 20260506043016 | 63 | 295 | 4.0 | 19.0 | 0.08 | 0.39 | 0.39 | 95 | 1008.3 |
| 20260506041554 | 64 | 175 | 3.0 | 10.0 | 0.05 | 0.36 | 0.36 | 96 | 1006.1 |
| 20260506040116 | 64 | 195 | 5.0 | 12.0 | 0.00 | 0.31 | 0.31 | 96 | 1007.2 |
| 20260506040048 | 64 | 226 | 4.0 | 10.0 | 0.00 | 0.31 | 0.31 | 96 | 1005.3 |
| 20260506034553 | 64 | 205 | 6.0 | 12.0 | 0.00 | 0.31 | 0.31 | 96 | 1005.4 |
| 20260506033053 | 63 | 207 | 5.0 | 11.0 | 0.00 | 0.31 | 0.31 | 97 | 1005.5 |
| 20260506033021 | 63 | 196 | 5.0 | 13.0 | 0.00 | 0.31 | 0.31 | 97 | 1007.4 |
| 20260506031546 | 63 | 224 | 6.0 | 9.0 | 0.00 | 0.31 | 0.31 | 97 | 1005.7 |
| 20260506030056 | 63 | 181 | 3.0 | 11.0 | 0.00 | 0.31 | 0.31 | 97 | 1005.4 |
| 20260506030016 | 63 | 188 | 4.0 | 13.0 | 0.00 | 0.31 | 0.31 | 97 | 1007.3 |
| 20260506024550 | 63 | 173 | 4.0 | 9.0 | 0.01 | 0.31 | 0.31 | 97 | 1005.5 |
| 20260506023044 | 63 | 200 | 4.0 | 8.0 | 0.01 | 0.31 | 0.31 | 97 | 1005.6 |
| 20260506023016 | 63 | 185 | 3.0 | 9.0 | 0.01 | 0.31 | 0.31 | 97 | 1007.6 |
| 20260506021552 | 63 | 197 | 3.0 | 7.0 | 0.01 | 0.31 | 0.31 | 97 | 1005.7 |
| 20260506020044 | 62 | 204 | 3.0 | 7.0 | 0.01 | 0.31 | 0.31 | 97 | 1005.4 |
| 20260506020016 | 62 | 186 | 3.0 | 15.0 | 0.01 | 0.31 | 0.31 | 97 | 1007.4 |
| 20260506014542 | 62 | 185 | 3.0 | 8.0 | 0.01 | 0.30 | 0.30 | 97 | 1005.5 |
| 20260506013045 | 62 | 169 | 3.0 | 8.0 | 0.01 | 0.30 | 0.30 | 97 | 1005.4 |
| 20260506013016 | 62 | 182 | 4.0 | 15.0 | 0.01 | 0.30 | 0.30 | 97 | 1007.5 |
| 20260506011604 | 62 | 178 | 4.0 | 12.0 | 0.01 | 0.30 | 0.30 | 97 | 1005.6 |
| 20260506010038 | 62 | 172 | 5.0 | 10.0 | 0.01 | 0.30 | 0.30 | 97 | 1005.9 |
| 20260506010016 | 62 | 192 | 5.0 | 12.0 | 0.01 | 0.30 | 0.30 | 97 | 1007.9 |
| 20260506004543 | 62 | 177 | 5.0 | 11.0 | 0.00 | 0.28 | 0.28 | 97 | 1006.0 |